STARLINK-35341, 66027

Orbit data source: Space-Track

STARLINK-35341, 66027 is a payload satellite owned by SpaceX/Seattle (US) in LEO that was launched on Thu, 16 Oct 2025 UTC via an FALCON 9 launch vehicle from the Air Force Eastern Test Range (AFETR). Payload-class satellites include a variety of spacecraft equipped with specific instruments for various scientific and technological missions. These include communications satellites like Starlink; space stations such as the ISS; scientific satellites like the Hubble; Earth observation satellites from companies like Planet Labs, Umbra, and HawkEye 360; GPS; miniature CubeSats for education and research; and military/defense satellites.

Loading next visibility...
Identifier
66027, 2025-232Y
Orbit
LEO
Country
Flag of USUS
Related business
Manufacturer
SpaceX/Seattle
Mission
Operational Commercial Communications
Bus & Motor
STARLINK V2MO, Unknown motor
Mass
575 kg wet, ~530 kg dry
Launch date (UTC)
2025-10-16 (8 months ago)
Launch vehicle
FALCON 9
Launch site
Air Force Eastern Test Range (AFETR)
Object type
Payload
Rocket body
Debris
Shape & HBR
Box + 2 Pan, 17.7 m
Radar Cross Section
36.964 m², Large (>1 m²)

Expand to show TLE details & history
Last TLE update: 1 day ago

TLE from 1 day ago
0 STARLINK-35341
1 66027U 25232Y   26170.78757338  .00008497  00000-0  26240-3 0  9994
2 66027  53.1599 349.2158 0001231 101.9077 258.2064 15.34391531 39070
Epoch: 2026-06-19T18:54Z
TLE epoch observation values (Epoch: 2026-06-19T18:54:06.340Z)
Latitude
0.00003°
Longitude
157.67787°
Altitude
463.802 km
Speed
7.636 km/s
True Right ascension
23h 16m 51s
True Declination
0° 00' 00"
Sunlit
Object was in daylight at epoch
Visualization orbit readout
Latitude
Unknown
Longitude
Unknown
Altitude
Unknown
Speed
Unknown
Apparent Right ascension
Unknown
Apparent Declination
Unknown
Sunlit
N/A
Visualization observer readout
Local Sidereal Time
07:19:31
Azimuth
Unknown
Elevation
Unknown
Doppler factor
Unknown
Orbital elements
Apogee altitude
463.827 km
Perigee altitude
462.143 km
Semi-major axis
6,841.122 km
Eccentricity
0.00012
Inclination
53.1599°
RAAN
349.2158°
Arg. of periapsis
101.9077°
True anomaly
258.19259°
Mean anomaly
258.2064°
Eccentric anomaly
258.1995°
Mean motion
3.83577 °/min
Orbital period
93.85 mins
BSTAR
0.0002624
Loading maneuver chart data...
Computing Atmospheric mass density...
Loading historical data...
Loading historical data...
Loading historical data...
Loading historical data...
Loading historical data...
Loading historical data...
Loading historical data...

Documentation

Showing up to 5 results
|